TimeEDT,TemperatureF,Dew PointF,Humidity,Sea Level PressureIn,VisibilityMPH,Wind Direction,Wind SpeedMPH,Gust SpeedMPH,PrecipitationIn,Events,Conditions,WindDirDegrees,DateUTC
12:15 AM,46.0,39.6,78,30.09,10.0,North,16.1,21.9,N/A,,Overcast,360,2012-10-28 04:15:00
12:35 AM,46.0,39.4,78,30.09,10.0,North,12.7,23.0,N/A,,Overcast,350,2012-10-28 04:35:00
12:55 AM,45.9,39.0,77,30.08,10.0,North,13.8,17.3,N/A,,Overcast,360,2012-10-28 04:55:00
1:15 AM,45.7,39.0,78,30.08,10.0,North,11.5,19.6,N/A,,Overcast,350,2012-10-28 05:15:00
1:55 AM,45.5,39.2,79,30.07,10.0,North,16.1,19.6,N/A,,Overcast,350,2012-10-28 05:55:00
2:15 AM,45.1,39.4,80,30.07,10.0,North,16.1,21.9,N/A,,Overcast,350,2012-10-28 06:15:00
2:35 AM,45.0,39.2,80,30.06,10.0,North,20.7,-,N/A,,Overcast,350,2012-10-28 06:35:00
2:55 AM,44.6,39.4,82,30.06,10.0,North,17.3,25.3,N/A,,Overcast,360,2012-10-28 06:55:00
3:15 AM,44.6,39.4,82,30.05,10.0,North,16.1,23.0,N/A,,Overcast,360,2012-10-28 07:15:00
3:35 AM,44.6,39.6,82,30.04,10.0,North,13.8,20.7,N/A,,Overcast,350,2012-10-28 07:35:00
3:55 AM,44.6,39.9,84,30.04,10.0,North,13.8,19.6,N/A,,Overcast,350,2012-10-28 07:55:00
4:15 AM,44.6,40.1,84,30.04,10.0,North,11.5,16.1,N/A,,Overcast,350,2012-10-28 08:15:00
4:35 AM,44.8,40.1,84,30.03,10.0,North,13.8,-,N/A,,Overcast,350,2012-10-28 08:35:00
4:55 AM,44.8,40.1,84,30.03,10.0,North,13.8,-,N/A,,Overcast,350,2012-10-28 08:55:00
5:15 AM,45.0,40.1,83,30.03,10.0,North,13.8,-,N/A,,Overcast,350,2012-10-28 09:15:00
5:35 AM,45.1,39.7,81,30.03,10.0,North,15.0,20.7,N/A,,Overcast,350,2012-10-28 09:35:00
5:55 AM,45.5,39.6,80,30.02,10.0,North,15.0,24.2,N/A,,Overcast,350,2012-10-28 09:55:00
6:15 AM,45.5,39.2,79,30.01,10.0,North,12.7,20.7,N/A,,Overcast,350,2012-10-28 10:15:00
6:35 AM,45.3,39.0,79,30.01,10.0,North,13.8,17.3,N/A,,Overcast,360,2012-10-28 10:35:00
6:55 AM,45.5,38.7,77,30.02,10.0,North,13.8,24.2,N/A,,Overcast,350,2012-10-28 10:55:00
7:15 AM,45.5,38.5,76,30.02,10.0,NNW,12.7,20.7,N/A,,Overcast,340,2012-10-28 11:15:00
7:25 AM,44.6,37.4,76,30.02,10.0,NNW,15.0,-,N/A,,Overcast,340,2012-10-28 11:25:00
7:35 AM,45.1,37.8,75,30.02,10.0,North,17.3,23.0,N/A,,Overcast,350,2012-10-28 11:35:00
7:50 AM,44.6,37.4,76,30.03,10.0,North,19.6,-,N/A,,Overcast,350,2012-10-28 11:50:00
7:55 AM,45.0,37.4,75,30.03,10.0,NNW,16.1,23.0,N/A,,Overcast,340,2012-10-28 11:55:00
8:15 AM,45.0,37.4,75,30.03,10.0,North,19.6,24.2,N/A,,Overcast,350,2012-10-28 12:15:00
9:50 AM,44.6,37.4,76,30.03,10.0,North,20.7,32.2,N/A,,Overcast,350,2012-10-28 13:50:00
10:50 AM,44.6,35.6,71,30.03,10.0,North,17.3,-,N/A,,Overcast,350,2012-10-28 14:50:00
11:50 AM,44.6,35.6,71,30.03,10.0,North,19.6,24.2,N/A,,Overcast,350,2012-10-28 15:50:00
1:50 PM,44.6,37.4,76,29.98,10.0,North,20.7,31.1,N/A,,Overcast,360,2012-10-28 17:50:00
2:50 PM,42.8,39.2,87,29.97,10.0,North,17.3,24.2,N/A,Rain,Light Rain,350,2012-10-28 18:50:00
3:50 PM,41.0,37.4,87,29.98,10.0,NNW,18.4,24.2,N/A,Rain,Light Rain,340,2012-10-28 19:50:00
4:55 PM,41.0,37.4,87,29.99,7.0,NNW,15.0,23.0,N/A,Rain,Rain,330,2012-10-28 20:55:00
5:55 PM,39.2,37.4,93,30.00,7.0,NNW,15.0,24.2,N/A,Rain,Rain,330,2012-10-28 21:55:00
6:50 PM,39.2,37.4,93,30.00,7.0,NNW,21.9,29.9,N/A,Rain,Light Rain,340,2012-10-28 22:50:00
9:15 PM,39.6,37.6,93,30.02,10.0,NNW,15.0,20.7,0.01,Rain,Light Rain,340,2012-10-29 01:15:00
9:35 PM,39.6,37.4,92,30.01,10.0,NNW,20.7,26.5,0.02,Rain,Light Rain,340,2012-10-29 01:35:00
9:55 PM,38.7,36.9,93,30.01,10.0,NNW,17.3,23.0,0.03,Rain,Light Rain,330,2012-10-29 01:55:00
10:15 PM,38.3,36.5,93,30.01,10.0,NNW,17.3,25.3,0.02,Rain,Light Rain,330,2012-10-29 02:15:00
10:35 PM,38.3,36.3,93,30.01,10.0,NNW,15.0,26.5,0.03,Rain,Light Rain,330,2012-10-29 02:35:00
10:55 PM,38.3,36.5,93,30.01,10.0,NNW,15.0,21.9,0.04,Rain,Light Rain,330,2012-10-29 02:55:00
11:35 PM,37.6,35.8,93,30.00,10.0,NNW,19.6,25.3,0.02,Rain,Light Rain,330,2012-10-29 03:35:00
11:55 PM,37.6,36.0,94,30.00,10.0,NNW,15.0,24.2,0.03,Rain,Light Rain,330,2012-10-29 03:55:00